This is the latest recevied weather packets stored in our database for station/object N0NPO. If no packets are shown the sender has not sent any weather packets the latest 10 day(s).
| Time | Temp. | Humidity | Pressure | Rain* | Wind** | Luminosity | Snow |
|---|---|---|---|---|---|---|---|
| 1777558845 | 6.11° C | 1% | 1025.8 hPa | 0 mm | - | 283 W/m² | - |
| 1777558540 | 6.67° C | 1% | 1025.8 hPa | 0 mm | - | 312 W/m² | - |
| 1777558237 | 6.11° C | 1% | 1025.6 hPa | 0 mm | - | 279 W/m² | - |
| 1777557933 | 6.11° C | 1% | 1025.8 hPa | 0 mm | - | 219 W/m² | - |
| 1777557630 | 5° C | 1% | 1025.7 hPa | 0 mm | - | 252 W/m² | - |
| 1777557326 | 5.56° C | 1% | 1025.7 hPa | 0 mm | - | 250 W/m² | - |
| 1777557023 | 5° C | 1% | 1025.7 hPa | 0 mm | - | 231 W/m² | - |
| 1777556718 | 5° C | 1% | 1025.7 hPa | 0 mm | - | 242 W/m² | - |
| 1777556414 | 4.44° C | 1% | 1025.8 hPa | 0 mm | - | 221 W/m² | - |
| 1777556109 | 3.89° C | 1% | 1025.7 hPa | 0 mm | - | 179 W/m² | - |
| 1777555805 | 3.33° C | 1% | 1025.5 hPa | 0 mm | - | 176 W/m² | - |
| 1777555500 | 3.33° C | 1% | 1025.5 hPa | 0 mm | - | 170 W/m² | - |
| 1777555196 | 3.89° C | 1% | 1025.6 hPa | 0 mm | - | 153 W/m² | - |
| 1777554894 | 3.89° C | 1% | 1025.4 hPa | 0 mm | - | 138 W/m² | - |
| 1777554591 | 3.89° C | 1% | 1025.5 hPa | 0 mm | - | 128 W/m² | - |
| 1777554287 | 3.33° C | 1% | 1025.6 hPa | 0 mm | - | 120 W/m² | - |
| 1777553985 | 2.78° C | 1% | 1025.6 hPa | 0 mm | - | 102 W/m² | - |
| 1777553681 | 2.78° C | 1% | 1025.7 hPa | 0 mm | - | 89 W/m² | - |
| 1777553378 | 2.78° C | 1% | 1025.5 hPa | 0 mm | - | 79 W/m² | - |
| 1777553074 | 2.22° C | 1% | 1025.5 hPa | 0 mm | - | 59 W/m² | - |
| 1777552769 | 1.67° C | 1% | 1025.5 hPa | 0 mm | - | 48 W/m² | - |
| 1777552465 | 1.67° C | 1% | 1025.7 hPa | 0 mm | - | 43 W/m² | - |
| 1777552161 | 1.67° C | 1% | 1025.6 hPa | 0 mm | - | 38 W/m² | - |
| 1777551858 | 1.11° C | 1% | 1025.5 hPa | 0 mm | - | 34 W/m² | - |
| 1777551556 | 0.56° C | 1% | 1025.7 hPa | 0 mm | - | 32 W/m² | - |
* Rain latest hour (hover to see other rain measurements)
** Current wind speed in m/s (hover to see current wind gust speed)